weather.gov     
National Weather Service

Regional Weather Roundup
NWS Homepage
This page is being discontinued on March 12, 2014.
The same data is available at this site. Please update your bookmarks.
Thank you, and we apologize for the inconvenience.
Please send an email to SR-SRH.Webmaster@noaa.gov with any concerns.


Current Version
Previous Version:    01  02  03  04  05  06  07  08  09  10  11  12  13  14  15  16  17  18  19  20  21  22  23  24  
[Printable]
762
ASUS44 KSJT 182310
RWRSJT
WEST CENTRAL TEXAS REGIONAL WEATHER ROUNDUP
NATIONAL WEATHER SERVICE SAN ANGELO TX
600 PM CDT FRI APR 18 2014

NOTE: "FAIR" INDICATES FEW OR NO CLOUDS BELOW 12,000 FEET WITH NO
SIGNIFICANT WEATHER AND/OR OBSTRUCTIONS TO VISIBILITY.

TXZ049-054-064>066-071>073-076>078-098-099-113-114-127-128-139-140-
154-155-168>170-190000
...LOCATIONS ACROSS WEST CENTRAL TEXAS...

CITY           SKY/WX    TMP DP  RH WIND       PRES   REMARKS
SAN ANGELO     CLOUDY    77  46  33 E8        30.07F
ABILENE        MOSUNNY   73  46  38 SE6       30.12F
DYESS AFB      NOT AVBL
JUNCTION       MOSUNNY   79  46  31 MISG      30.08F
SWEETWATER     PTSUNNY   74  43  33 SE9       30.13F
BROWNWOOD      PTSUNNY   72  48  43 CALM      30.13S
COLEMAN        PTCLDY    73  44  35 SE8       30.12F
SONORA         PTSUNNY   75  46  35 CALM      30.08F
OZONA          FAIR      79  45  29 SE12G20   30.10F
BRADY          SUNNY     73  45  35 CALM      30.12S
$$

TEXAS PANHANDLE/OKLAHOMA PANHANDLE

CITY           SKY/WX    TMP DP  RH WIND       PRES   REMARKS
AMARILLO       SUNNY     74  42  31 S24       30.06F
BORGER         SUNNY     74  42  31 S17G30    30.03F
CANADIAN       SUNNY     69  43  37 S18G25    30.06F
DALHART        MOSUNNY   74  39  28 S30G36    30.01F
DUMAS          CLEAR     72  41  32 S24G31    30.02F
GUYMON         NOT AVBL
HEREFORD       MOCLDY    71  41  33 S20G29    30.07F
PAMPA          CLEAR     68  42  38 S22G28    30.07F
PERRYTON       SUNNY     70  43  38 S22G28    30.03F
$$

SOUTHERN PANHANDLE/SOUTH PLAINS/ROLLING PLAINS

CITY           SKY/WX    TMP DP  RH WIND       PRES   REMARKS
LUBBOCK        CLOUDY    70  44  39 S16       30.09F
SNYDER         PTSUNNY   72  46  39 SE8       30.11F
CHILDRESS      SUNNY     68  47  46 SE15G21   30.11F
SEMINOLE       CLOUDY    72  44  37 S16       30.10F
$$

PERMIAN BASIN

CITY           SKY/WX    TMP DP  RH WIND       PRES   REMARKS
MIDLAND        PTSUNNY   76  46  34 SE14G24   30.07F
ODESSA         PTSUNNY   76  45  33 SE17G24   30.07F
WINK           MOSUNNY   79  47  32 SE20G26   30.03F
$$

FAR WEST/SOUTHWEST MOUNTAINS/TRANS PECOS

CITY           SKY/WX    TMP DP  RH WIND       PRES   REMARKS
ALPINE         CLEAR     76  43  31 SE14G22   30.13F
DRYDEN           N/A     78  51  38 E22       30.05F
EL PASO        CLOUDY    82  32  16 SE12      29.95F
FORT STOCKTON  SUNNY     76  49  38 SE21G26   30.05F
GUADALUPE PASS MOSUNNY   68  41  37 E20G26    30.12F
MARFA          SUNNY     75  39  27 SE12G21   30.11F
PECOS          CLEAR     80  45  29 E21G26    30.02F
$$

DALLAS/FORT WORTH METROPLEX

CITY           SKY/WX    TMP DP  RH WIND       PRES   REMARKS
DFW AIRPORT    MOSUNNY   76  46  34 E5        30.11F
FTW MEACHAM    SUNNY     74  51  44 CALM      30.11F
DAL-EXECUTIVE  SUNNY     76  45  33 CALM      30.11F
GRAND PRAIRIE  NOT AVBL
ADDISON        MOSUNNY   75  43  31 N3        30.12F
MESQUITE       CLEAR     73  45  35 MISG      30.12S
LANCASTER      CLEAR     74  45  34 E5        30.13S
$$

NORTH CENTRAL TEXAS

CITY           SKY/WX    TMP DP  RH WIND       PRES   REMARKS
SHRMAN/DENISON CLEAR     73  40  30 CALM      30.13F
GAINESVILLE    SUNNY     73  45  36 SW3       30.14F
BRIDGEPORT     CLEAR     70  49  48 CALM      30.14F
DENTON         PTSUNNY   73  47  39 CALM      30.12F
WAXAHACHIE     CLEAR     71  47  43 CALM      30.13F
GRANBURY       MOCLDY    74  51  43 E6        30.14S
$$

WESTERN NORTH TEXAS

CITY           SKY/WX    TMP DP  RH WIND       PRES   REMARKS
WICHITA FALLS  PTSUNNY   72  50  45 SW6       30.12F
VERNON         MOCLDY    69  50  49 SE6       30.14F
BRECKENRIDGE   CLOUDY    73  47  40 CALM      30.13F
COMANCHE       MOSUNNY   72  49  44 E6        30.14S
$$

CENTRAL AND SOUTH CENTRAL TEXAS

CITY           SKY/WX    TMP DP  RH WIND       PRES   REMARKS
AUSTIN/BERGSTM MOSUNNY   76  53  44 NE3       30.10F
WACO           PTSUNNY   72  52  49 E6        30.12F
HILLSBORO      CLEAR     74  50  43 NE6       30.13S
TEMPLE         SUNNY     73  50  43 N8        30.14S
KILLEEN-GRAY   PTSUNNY   73  54  49 NE3       30.12S
FORT HOOD      NOT AVBL
GEORGETOWN     MOSUNNY   73  54  49 E8        30.11F
LAGO VISTA     MOCLDY    73  52  47 E6        30.13S
SAN MARCOS     PTSUNNY   75  52  43 CALM      30.12F
NEW BRAUNFELS  CLOUDY    77  55  46 E7        30.09F
RANDOLPH AFB   PTSUNNY   76  53  44 E8        30.10F
SAN ANTONIO    PTSUNNY   76  55  48 E15       30.10S
STINSON        PTSUNNY   80  56  43 E10       30.07F
PLEASANTON     NOT AVBL
LA GRANGE      MOSUNNY   77  56  48 CALM      30.09S
GIDDINGS       PTCLDY    74  52  47 CALM      30.15R
$$

EAST TEXAS

CITY           SKY/WX    TMP DP  RH WIND       PRES   REMARKS
PARIS          SUNNY     73  46  38 CALM      30.14S
CLARKSVILLE    CLEAR     75  42  29 CALM      30.12F
TYLER          MOSUNNY   76  47  35 E7        30.11S
LONGVIEW       MOSUNNY   72  50  45 E3        30.11S
PALESTINE      CLEAR     77  45  32 E3        30.13S
NACOGDOCHES    MOSUNNY   72  52  49 E6        30.12S
$$

TEXAS HILL COUNTRY AND EDWARDS PLATEAU

CITY           SKY/WX    TMP DP  RH WIND       PRES   REMARKS
LLANO          MOCLDY    77  48  36 E7        30.14S
HORSESHOE BAY  FAIR      75  50  41 E3        30.10F
KERRVILLE      PTSUNNY   78  46  32 S5        30.10F
FREDERICKSBRG  PTSUNNY   75  48  38 SE5       30.11S
ROCKSPRINGS    MOCLDY    75  46  35 SE6       30.12F
HONDO          PTSUNNY   81  51  35 SE10      30.09F
UVALDE         MOCLDY    78  51  39 E6        30.08F
DEL RIO        MOSUNNY   80  51  36 SE14      30.05F
$$

SOUTHEAST TEXAS

CITY           SKY/WX    TMP DP  RH WIND       PRES   REMARKS
COLLEGE STN    MOSUNNY   77  53  43 N8        30.10S
CALDWELL       CLEAR     73  48  40 CALM      30.14S
CROCKETT       CLEAR     75  57  53 NE5       30.13S
BRENHAM        SUNNY     75  54  47 N3        30.12R
HUNTSVILLE     PTSUNNY   75  52  44 CALM      30.10F
CONROE         MOSUNNY   74  54  49 CALM      30.09F
HOUSTON BUSH   MOSUNNY   78  53  41 NE10      30.07F
HOUSTON HOBBY  MOSUNNY   78  53  41 N3        30.07S
PERLAND        SUNNY     79  51  37 NE9       30.09S
WHARTON        MOCLDY    75  55  48 N7        30.10R
$$

THE UPPER TEXAS COAST

CITY           SKY/WX    TMP DP  RH WIND       PRES   REMARKS
ORANGE         PTCLDY    75  54  47 N6        30.09F
PORT ARTHUR    CLOUDY    76  55  48 NE9       30.07F
GALVESTON      SUNNY     76  56  49 N6        30.09S
ANGLETON       NOT AVBL
BAY CITY       CLEAR     75  62  62 S5        30.08S
$$

TEXAS COASTAL BEND, RIO GRANDE PLAINS DEEP SOUTH TEXAS

CITY           SKY/WX    TMP DP  RH WIND       PRES   REMARKS
VICTORIA       PTSUNNY   81  56  42 NE5       30.09S
BEEVILLE       MOCLDY    80  54  41 E6        30.07F
ROCKPORT       MOSUNNY   72  60  66 SE13      30.09F
PORT ARANSAS   PTCLDY    69  61  76 SE10      30.09F
PORT LAVACA    CLOUDY    77  57  50 E5        30.08S
CORPUS CHRISTI PTSUNNY   78  56  46 E15       30.08F
KINGSVILLE NAS PTSUNNY   77  57  50 E12       30.08F
COTULLA        PTSUNNY   80  51  36 SE6       30.06F
LAREDO         PTSUNNY   82  58  43 E10       30.07F
BROWNSVILLE    MOSUNNY   75  60  59 NE10      30.10S
PORT ISABEL    MOSUNNY   73  62  68 NE12      30.10S
HEBBRONVILLE   CLOUDY    78  58  50 SE9       30.08S
MCALLEN        PTSUNNY   76  62  62 E10       30.08F
WESLACO        CLOUDY    76  61  60 NE14G20   30.08F
FALFURRIAS     CLOUDY    74  57  54 E13G18    30.08R
EDINBURG       CLOUDY    74  61  63 E9        30.10S
$$




U.S. Dept. of Commerce
NOAA National Weather Service
1325 East West Highway
Silver Spring, MD 20910
E-mail: w-nws.webmaster@noaa.gov
Page last modified: May 16, 2007
NATIONAL WEATHER SERVICE: for Safety, for Work, for Fun - FOR LIFE